STARLINK-11288, 61002

Orbit data source: Space-Track

STARLINK-11288, 61002 is a payload satellite owned by SpaceX/Seattle (US) in LEO that was launched on Thu, 05 Sep 2024 UTC via an FALCON 9 launch vehicle from the Air Force Eastern Test Range (AFETR). Payload-class satellites include a variety of spacecraft equipped with specific instruments for various scientific and technological missions. These include communications satellites like Starlink; space stations such as the ISS; scientific satellites like the Hubble; Earth observation satellites from companies like Planet Labs, Umbra, and HawkEye 360; GPS; miniature CubeSats for education and research; and military/defense satellites.

Loading next visibility...
Identifier
61002, 2024-158N
Orbit
LEO
Country
Flag of USUS
Related business
Manufacturer
SpaceX/Seattle
Mission
Operational Commercial Communications
Bus & Motor
STARLINK V2MD, Unknown motor
Mass
960 kg wet, ~910 kg dry
Launch date (UTC)
2024-09-05 (2 years ago)
Launch vehicle
FALCON 9
Launch site
Air Force Eastern Test Range (AFETR)
Object type
Payload
Rocket body
Debris
Shape & HBR
Box + 2 Pan, 18.1 m
Radar Cross Section
36.964 m², Large (>1 m²)

Expand to show TLE details & history
Last TLE update: 14 hours ago

TLE from 14 hours ago
0 STARLINK-11288
1 61002U 24158N   26171.30498333  .00000196  00000-0  64725-5 0  9994
2 61002  53.1586 135.2545 0000860 111.6156 248.4953 15.69709476103709
Epoch: 2026-06-20T07:19Z
TLE epoch observation values (Epoch: 2026-06-20T07:19:10.559Z)
Latitude
-0.00008°
Longitude
116.93893°
Altitude
360.856 km
Speed
7.694 km/s
True Right ascension
09h 01m 01s
True Declination
0° 00' 00"
Sunlit
Object was in daylight at epoch
Visualization orbit readout
Latitude
Unknown
Longitude
Unknown
Altitude
Unknown
Speed
Unknown
Apparent Right ascension
Unknown
Apparent Declination
Unknown
Sunlit
N/A
Visualization observer readout
Local Sidereal Time
08:42:08
Azimuth
Unknown
Elevation
Unknown
Doppler factor
Unknown
Orbital elements
Apogee altitude
360.569 km
Perigee altitude
359.41 km
Semi-major axis
6,738.126 km
Eccentricity
0.00009
Inclination
53.1586°
RAAN
135.2545°
Arg. of periapsis
111.6156°
True anomaly
248.48613°
Mean anomaly
248.4953°
Eccentric anomaly
248.49072°
Mean motion
3.92405 °/min
Orbital period
91.74 mins
BSTAR
0.0000064725
Loading maneuver chart data...
Computing Atmospheric mass density...
Loading historical data...
Loading historical data...
Loading historical data...
Loading historical data...
Loading historical data...
Loading historical data...
Loading historical data...

Documentation

Showing up to 5 results
|